User: anonymous   Login
Location: Stoke Bliss
(52.2667°N, 2.5167°W)
Time: 17:58:18
(UTC+00:00)
Language:

Cosmos 2242 Rocket - Orbit

View from above orbital plane
View from above orbital plane
View from above satellite
View from above satellite

Ground track
Ground track

The orbit data is extracted from the following two-line orbital elements,

1 22627U 93024B   21129.24798643  .00000066  00000-0  58770-5 0  9999
2 22627  82.5248 219.4503 0023533   4.8153 355.3280 14.78206509512221
Epoch (UTC): 09 May 2021 05:57:06
Eccentricity: 0.0023533
inclination: 82.5248°
perigee height: 618 km
apogee height: 651 km
right ascension of ascending node: 219.4503°
argument of perigee: 4.8153°
revolutions per day: 14.78206509
mean anomaly at epoch: 355.3280°
orbit number at epoch: 51222

The dashed part of the orbit path shows where the satellite is in the earth's shadow,  

DLR